Weather History for Baker, OR

Change the Weather History Date:

Tuesday, April 3, 2012

  Actual Average Record
Temperature  
Mean Temperature 45 °F 41 °F  
Max Temperature 62 °F 55 °F 71 °F (1987)
Min Temperature 27 °F 28 °F 14 °F (2007)
Degree Days  
Heating Degree Days 20 24  
Month to date heating degree days 80 72  
Since 1 July heating degree days 6042 6440  
Cooling Degree Days 0 0  
Month to date cooling degree days 0 0  
Year to date cooling degree days 0 0  
Moisture  
Dew Point 23 °F    
Average Humidity 48    
Maximum Humidity 75    
Minimum Humidity 21    
Precipitation  
Precipitation 0.00 in 0.02 in 0.21 in (2005)
Month to date precipitation T 0.07  
Year to date precipitation 1.66 2.27  
Sea Level Pressure  
Sea Level Pressure 29.95 in    
Wind  
Wind Speed 15 mph (ESE)    
Max Wind Speed 28 mph    
Max Gust Speed 37 mph    
Visibility 10 miles    
Events      
T = Trace of Precipitation, MM = Missing Value Source: NWS Daily Summary

Daily Weather History Graph

Daily Weather History Graph

Search for Another Location

Airport:

Trip Planner

Search our weather history database for the weather conditions in past years. The results will help you decide how hot, cold, wet, or windy it might be!

Date:

Astronomy

Apr. 03, 2012 Rise Set
Actual Time 6:27 AM PDT 7:22 PM PDT
Civil Twilight 5:57 AM PDT 7:51 PM PDT
Nautical Twilight 5:22 AM PDT 8:27 PM PDT
Astronomical Twilight 4:45 AM PDT 9:04 PM PDT
Moon 4:04 PM PDT (4/3) 4:26 AM PDT (4/3)
Length of Visible Light 13h 54m
Length of Day
12h 54m
Waxing Gibbous, 87% of the Moon is Illuminated
Apr 3
Waxing Gibbous
Apr 6
Full
Apr 13
Last Quarter
Apr 21
New
Apr 29
First Quarter

Hourly Weather History & Observations

Time (PDT) Temp. Windchill Dew Point Humidity Pressure Visibility Wind Dir Wind Speed Gust Speed Precip Events Conditions
12:53 AM 33.1 °F 26.1 °F 21.0 °F 61% 30.17 in 10.0 mi ESE 8.1 mph - N/A   Clear
1:53 AM 30.0 °F 21.7 °F 21.0 °F 69% 30.15 in 10.0 mi East 9.2 mph - N/A   Clear
2:53 AM 28.9 °F 21.1 °F 21.0 °F 72% 30.14 in 10.0 mi ESE 8.1 mph - N/A   Clear
3:53 AM 33.1 °F 28.7 °F 21.9 °F 64% 30.10 in 10.0 mi East 4.6 mph - N/A   Clear
4:53 AM 33.1 °F 28.7 °F 21.9 °F 64% 30.08 in 10.0 mi SE 4.6 mph - N/A   Clear
5:53 AM 35.1 °F 27.9 °F 21.9 °F 59% 30.06 in 10.0 mi SE 9.2 mph - N/A   Clear
6:53 AM 37.0 °F 29.8 °F 21.9 °F 54% 30.06 in 10.0 mi East 10.4 mph - N/A   Clear
7:53 AM 39.0 °F 30.3 °F 23.0 °F 53% 30.07 in 10.0 mi East 16.1 mph 21.9 mph N/A   Mostly Cloudy
8:53 AM 45.0 °F 36.9 °F 23.0 °F 42% 30.05 in 10.0 mi East 20.7 mph 26.5 mph N/A   Scattered Clouds
9:53 AM 46.0 °F 38.0 °F 21.9 °F 39% 30.04 in 10.0 mi East 21.9 mph 28.8 mph N/A   Partly Cloudy
10:53 AM 48.0 °F - 21.0 °F 34% 30.03 in 10.0 mi ESE 26.5 mph 31.1 mph N/A   Partly Cloudy
11:53 AM 50.0 °F - 23.0 °F 35% 30.01 in 10.0 mi East 19.6 mph 27.6 mph N/A   Clear
12:53 PM 55.0 °F - 23.0 °F 29% 29.96 in 10.0 mi ESE 20.7 mph - N/A   Mostly Cloudy
1:53 PM 57.0 °F - 26.1 °F 30% 29.92 in 10.0 mi East 19.6 mph 31.1 mph N/A   Clear
2:53 PM 59.0 °F - 23.0 °F 25% 29.86 in 10.0 mi SE 19.6 mph 36.8 mph N/A   Clear
3:53 PM 62.1 °F - 23.0 °F 22% 29.84 in 10.0 mi SSE 19.6 mph - N/A   Clear
4:53 PM 60.1 °F - 21.9 °F 23% 29.82 in 10.0 mi SE 24.2 mph 31.1 mph N/A   Clear
5:53 PM 57.9 °F - 24.1 °F 27% 29.80 in 10.0 mi ESE 20.7 mph 25.3 mph N/A   Clear
6:53 PM 55.0 °F - 24.1 °F 30% 29.79 in 10.0 mi ESE 13.8 mph - N/A   Clear
7:53 PM 48.0 °F - 24.1 °F 39% 29.79 in 10.0 mi ESE 8.1 mph - N/A   Clear
8:53 PM 50.0 °F - 24.1 °F 36% 29.77 in 10.0 mi Calm Calm - N/A   Partly Cloudy
9:53 PM 43.0 °F 36.0 °F 30.0 °F 60% 29.78 in 10.0 mi NW 13.8 mph - N/A   Overcast
10:53 PM 41.0 °F 31.6 °F 30.0 °F 65% 29.80 in 10.0 mi NW 20.7 mph 29.9 mph N/A   Mostly Cloudy
11:53 PM 37.9 °F 29.6 °F 26.1 °F 62% 29.81 in 10.0 mi WNW 13.8 mph 23.0 mph N/A   Overcast